Wind_Speed
26 26 27 27 26 26 26 27 27 25 23 20 19 18 18 17 17 17 17 17 17 17 17 17 17 17 16 16 17 17 18 19 18 18 19 19 18 18 18 19 19 19 19 19
27 27 28 28 27 26 26 27 27 27 24 22 21 19 19 19 18 18 18 19 19 18 19 18 18 18 18 18 18 18 18 19 19 19 20 19 19 19 19 20 20 20 20 20
29 29 29 29 27 26 26 26 26 26 24 23 22 20 20 20 19 19 20 21 20 20 19 19 19 19 19 19 19 19 20 20 20 20 19 19 19 20 21 21 22 22 22 21
30 30 31 29 28 27 26 27 26 26 25 23 22 21 21 21 21 20 20 21 22 21 21 21 21 21 21 21 21 21 21 21 22 22 22 21 21 22 23 23 23 24 24 23
30 31 31 30 29 28 28 27 26 26 26 26 25 23 22 22 22 22 21 22 23 23 23 23 23 22 23 23 23 23 23 23 23 23 23 23 23 23 24 24 24 25 25 25
30 31 31 29 28 29 29 29 26 26 26 26 26 25 24 23 23 23 23 23 24 24 24 24 23 24 24 24 24 24 24 24 24 24 24 24 24 24 25 25 25 25 25 25
29 30 30 29 29 29 30 29 28 28 27 27 26 25 24 24 24 24 24 25 25 25 25 25 25 25 25 25 25 25 25 25 25 25 24 24 25 25 25 26 26 26 26 27
30 30 30 29 29 29 29 29 29 28 28 28 28 27 25 25 25 26 26 27 26 26 26 26 26 26 26 26 26 27 27 26 27 27 27 26 26 26 27 27 27 27 28 28
31 31 29 28 28 29 29 29 29 29 28 28 28 27 27 26 25 25 26 26 26 27 27 27 27 27 27 28 28 29 28 28 28 28 28 28 28 28 28 29 29 29 29 29
30 30 29 29 28 29 29 28 29 29 28 27 27 26 27 26 25 25 25 25 26 27 27 28 29 29 29 29 30 30 31 30 30 29 29 29 30 30 30 30 30 30 30 30
28 28 27 28 29 30 29 28 28 29 27 27 27 27 26 26 26 26 26 27 27 27 28 28 29 29 30 31 31 31 31 31 31 30 30 30 30 30 30 30 30 30 30 30
25 25 27 27 28 29 30 30 29 28 28 27 27 27 27 28 27 27 27 27 28 28 28 29 29 30 31 31 31 31 31 31 31 31 31 30 30 30 30 29 29 29 30 30
25 26 26 26 28 28 28 29 29 29 28 27 27 29 29 29 29 27 27 28 28 28 29 29 30 31 32 32 32 31 31 31 31 31 30 30 30 30 30 30 29 30 30 30
26 25 26 26 27 27 28 28 27 26 26 26 26 28 28 28 29 29 29 30 29 30 30 30 30 31 31 30 30 30 30 30 30 30 30 30 31 31 31 31 30 30 30 30
24 24 25 25 25 26 27 27 27 26 25 25 26 27 28 28 28 28 29 29 30 31 31 30 30 30 30 29 29 30 30 30 30 30 31 31 31 31 31 31 30 31 31 31
23 24 24 24 25 25 26 26 26 25 26 26 26 27 27 28 28 28 29 30 29 29 29 30 30 30 30 29 28 28 29 30 29 30 31 31 31 31 31 30 30 30 31 32
23 23 24 24 24 25 26 27 27 27 27 27 27 27 28 28 27 27 28 28 28 28 30 30 31 30 28 28 29 29 29 29 29 29 30 30 31 31 31 30 30 30 31 32
22 22 23 24 25 26 26 26 26 26 25 26 26 26 27 27 27 27 28 28 28 29 30 30 29 29 28 28 29 29 29 29 29 29 29 29 30 31 31 31 30 31 31 32
21 22 22 23 23 24 23 23 23 25 26 27 27 27 27 27 28 29 28 27 27 28 28 27 27 27 28 29 29 29 29 30 30 30 30 31 31 31 31 31 31 32 33 33
20 20 21 21 21 22 22 22 22 23 24 26 27 27 27 27 28 27 26 25 26 26 26 26 27 27 29 29 29 30 31 32 32 32 31 32 31 30 31 31 32 33 33 34
18 19 19 20 20 20 20 21 21 22 23 24 26 27 26 26 26 26 25 24 25 26 27 27 27 28 29 29 29 30 31 32 32 32 31 31 31 32 32 32 33 33 33 34
18 18 18 19 19 19 19 20 20 20 21 22 23 23 24 24 25 25 25 25 26 27 28 28 28 28 28 28 29 30 30 30 31 31 31 31 31 31 32 32 32 33 33 33
17 17 17 17 18 18 19 20 20 20 21 20 20 20 22 23 24 25 25 26 26 27 27 26 27 27 28 28 28 28 28 29 30 30 30 29 30 30 31 31 32 32 32 32
16 16 15 15 16 17 18 19 20 20 20 19 19 19 20 22 22 23 24 25 26 26 26 26 26 27 28 28 28 28 28 28 28 28 28 28 28 29 30 30 31 32 32 32
14 15 16 16 16 16 17 17 18 18 19 19 19 20 20 21 22 22 24 24 24 24 25 26 26 26 27 27 26 27 27 27 27 26 26 27 27 28 29 30 31 31 32 32
14 15 16 16 16 16 16 16 17 17 18 18 19 19 19 20 21 21 22 22 23 23 24 25 25 26 26 26 26 26 26 26 26 27 27 27 27 27 28 28 29 29 29 29
15 16 16 16 15 15 15 16 17 18 18 18 18 18 19 20 20 21 22 22 23 23 24 24 25 25 25 25 26 26 25 25 26 26 26 26 26 27 27 27 27 27 27 28
Wind_Direction
245 246 246 246 248 250 252 252 256 260 261 261 259 255 254 251 250 251 255 257 261 266 268 271 274 275 277 278 280 284 284 283 282 281 283 284 285 287 290 291 291 291 292 292
245 247 248 248 249 251 254 254 256 258 258 258 258 255 256 256 254 255 257 259 263 268 269 271 274 277 280 283 283 283 284 283 281 281 280 280 285 288 289 290 290 290 290 291
246 247 248 248 249 252 254 255 257 257 256 257 257 256 258 260 259 260 260 261 263 266 269 272 275 277 280 282 282 284 285 285 285 284 284 284 286 287 288 288 289 290 290 290
248 248 248 250 250 251 253 254 255 253 253 254 255 256 259 261 261 264 264 262 261 265 267 270 275 278 282 283 284 285 285 285 286 286 286 287 287 287 287 287 288 288 289 289
247 248 250 252 252 253 254 255 254 251 251 251 253 255 257 260 262 263 266 262 261 264 267 269 273 278 281 284 284 284 285 285 286 286 285 285 285 286 285 285 286 286 287 288
248 250 250 252 254 254 254 255 253 252 251 251 253 255 257 261 264 265 266 264 263 264 266 269 273 276 279 283 284 284 284 284 285 286 286 285 284 284 284 285 285 285 285 285
250 251 252 253 254 253 253 255 254 254 252 251 253 255 257 260 264 266 267 265 264 264 265 268 271 273 277 282 283 284 283 283 285 286 286 285 284 284 284 284 284 283 283 283
250 251 253 254 254 253 253 254 255 256 255 254 254 256 258 259 260 264 266 263 263 264 265 268 270 273 277 281 281 282 283 283 284 284 284 284 283 283 283 282 283 282 283 283
251 253 254 254 255 253 253 254 256 256 256 255 255 255 258 258 259 264 266 260 260 263 265 267 270 272 276 279 281 282 283 284 284 284 283 283 282 282 283 283 282 282 283 284
253 255 255 254 253 253 253 254 254 255 255 256 257 256 256 256 258 261 263 260 260 263 266 268 271 274 276 279 281 282 281 281 282 282 282 282 282 282 283 283 283 282 282 282
255 255 255 254 254 254 253 253 252 253 253 254 255 256 256 257 258 260 262 262 262 263 265 268 271 273 276 278 279 281 280 280 281 281 281 282 282 282 283 283 283 283 282 282
259 258 257 256 255 254 253 252 252 254 253 252 252 255 256 257 256 258 261 262 263 265 267 271 272 274 277 278 278 279 280 280 280 281 281 281 281 282 282 283 283 283 282 283
260 259 259 258 256 255 252 253 255 257 258 257 256 258 258 258 257 258 260 264 266 267 268 271 272 275 277 277 278 278 280 280 280 280 280 281 282 282 281 281 282 282 283 284
258 258 258 257 256 254 252 251 255 258 261 260 260 260 259 259 260 259 261 265 266 268 269 270 273 275 276 276 277 278 280 281 281 281 282 283 283 282 281 281 281 282 283 284
255 256 257 256 253 252 249 249 252 256 258 259 260 260 261 262 262 262 264 267 269 270 270 271 273 275 275 276 279 281 281 282 281 282 282 283 283 282 282 281 281 282 282 284
256 255 255 254 252 252 249 249 253 255 258 260 261 260 262 264 263 262 264 267 268 270 271 273 274 274 275 278 281 284 284 284 283 283 283 284 283 283 281 281 282 282 283 284
256 255 255 255 255 257 255 253 255 256 259 260 261 261 262 264 262 262 265 267 269 271 273 274 275 275 278 280 281 282 284 285 286 286 284 284 284 284 282 282 283 284 285 287
256 256 254 255 255 255 256 256 256 257 258 259 261 261 261 263 262 263 265 267 269 270 272 274 276 279 281 282 282 283 283 284 286 288 288 288 288 287 286 284 283 283 285 287
256 258 257 255 255 256 255 258 261 260 259 259 261 263 264 264 263 266 269 269 270 272 274 276 278 281 282 283 283 282 282 283 285 287 288 289 290 289 286 283 282 282 284 287
255 257 258 256 257 258 259 261 263 265 267 266 265 266 266 264 264 267 269 270 272 275 278 279 280 281 283 283 284 283 283 285 286 287 288 288 287 287 286 284 283 284 285 287
255 257 258 257 257 258 260 261 263 264 267 269 269 269 268 266 263 266 269 271 275 278 281 283 283 282 283 284 285 285 285 284 284 285 286 287 286 286 287 287 286 286 287 288
253 252 254 256 257 257 260 263 264 267 269 270 271 272 272 271 269 270 272 275 277 280 284 284 284 283 283 285 287 287 287 287 286 286 287 287 286 286 286 287 287 287 288 289
251 252 254 256 256 257 261 264 266 268 270 272 272 273 274 274 274 273 273 276 278 281 283 283 283 284 284 287 288 289 289 290 290 289 288 287 286 286 286 286 287 287 288 290
247 248 251 255 259 262 265 267 269 271 273 275 276 276 276 276 277 277 277 278 279 281 284 285 286 287 287 289 290 291 292 292 292 290 288 287 288 289 289 289 288 289 290 290
247 248 252 257 262 267 269 271 272 274 276 278 281 282 281 280 280 280 281 280 280 283 286 288 290 291 292 293 293 293 292 290 290 290 290 290 291 293 293 292 292 291 291 290
250 254 258 261 265 268 269 272 275 277 278 280 282 285 286 285 285 285 285 285 286 288 289 290 292 293 293 294 293 293 292 292 292 293 292 292 292 293 294 294 294 294 293 292
258 260 263 265 267 270 272 275 277 279 281 283 284 285 287 288 287 286 286 288 289 290 291 292 294 294 293 294 294 294 294 293 294 294 293 292 292 293 294 295 295 295 295 295
Height
5841 5843 5845 5847 5849 5850 5851 5853 5855 5857 5859 5861 5862 5863 5864 5865 5866 5867 5867 5868 5868 5869 5869 5869 5868 5868 5867 5867 5866 5865 5864 5864 5863 5863 5862 5861 5860 5859 5858 5857 5856 5855 5854 5852
5835 5836 5838 5840 5842 5844 5846 5847 5849 5851 5853 5856 5857 5858 5859 5860 5861 5862 5862 5862 5863 5863 5863 5863 5863 5862 5862 5861 5861 5860 5859 5859 5858 5857 5857 5856 5855 5855 5853 5852 5851 5850 5849 5848
5828 5830 5831 5833 5837 5839 5840 5842 5844 5845 5848 5850 5851 5852 5853 5855 5855 5856 5856 5857 5857 5857 5857 5857 5857 5856 5856 5855 5854 5854 5853 5853 5852 5852 5851 5851 5850 5849 5848 5847 5846 5844 5843 5842
5820 5823 5824 5830 5831 5832 5834 5835 5837 5839 5841 5843 5845 5846 5847 5848 5849 5850 5850 5850 5851 5851 5851 5851 5851 5850 5850 5849 5849 5848 5847 5847 5846 5845 5845 5844 5844 5843 5842 5841 5840 5838 5837 5835
5813 5815 5817 5821 5824 5825 5827 5829 5831 5832 5834 5836 5838 5840 5841 5842 5843 5844 5844 5844 5845 5845 5845 5845 5845 5845 5844 5844 5843 5842 5841 5841 5840 5839 5838 5838 5837 5836 5835 5834 5833 5832 5831 5829
5806 5807 5810 5815 5817 5818 5820 5821 5824 5825 5827 5829 5831 5833 5835 5836 5836 5837 5837 5838 5838 5838 5839 5838 5838 5838 5838 5837 5836 5836 5835 5834 5833 5832 5831 5830 5830 5829 5828 5827 5826 5824 5823 5822
5799 5800 5802 5806 5809 5810 5813 5815 5817 5818 5820 5821 5823 5826 5829 5829 5829 5830 5830 5831 5831 5831 5832 5832 5832 5832 5831 5831 5830 5829 5828 5827 5826 5825 5824 5824 5823 5822 5820 5819 5818 5817 5816 5815
5792 5793 5798 5799 5801 5803 5805 5807 5809 5811 5812 5814 5816 5818 5820 5821 5822 5822 5822 5823 5824 5824 5824 5825 5824 5824 5824 5824 5823 5822 5821 5820 5819 5818 5817 5816 5815 5814 5813 5812 5811 5809 5808 5807
5786 5789 5790 5792 5793 5795 5797 5799 5801 5803 5805 5807 5808 5810 5812 5813 5814 5815 5815 5815 5816 5816 5817 5817 5817 5817 5817 5816 5816 5815 5814 5813 5811 5810 5809 5808 5807 5806 5805 5803 5802 5801 5799 5798
5778 5780 5782 5784 5786 5788 5789 5792 5794 5795 5797 5799 5801 5803 5804 5805 5807 5808 5808 5808 5809 5809 5809 5810 5809 5809 5808 5808 5807 5807 5806 5804 5803 5802 5801 5800 5798 5797 5796 5795 5794 5792 5791 5789
5770 5772 5774 5776 5778 5780 5782 5784 5786 5788 5789 5791 5793 5795 5796 5798 5799 5800 5800 5801 5801 5801 5801 5801 5801 5801 5800 5799 5799 5798 5796 5795 5793 5792 5792 5791 5790 5788 5787 5786 5784 5783 5782 5780
5764 5765 5766 5768 5770 5772 5774 5776 5778 5780 5782 5783 5785 5787 5788 5790 5791 5792 5792 5792 5792 5793 5793 5793 5792 5792 5791 5790 5789 5788 5787 5786 5785 5784 5783 5782 5781 5779 5778 5777 5775 5774 5773 5771
5757 5758 5759 5760 5762 5763 5765 5768 5770 5772 5774 5776 5778 5779 5780 5781 5782 5783 5784 5784 5784 5784 5784 5784 5783 5783 5782 5781 5780 5779 5778 5777 5776 5775 5774 5773 5772 5770 5769 5768 5766 5765 5763 5762
5750 5751 5751 5753 5754 5755 5757 5760 5763 5765 5766 5768 5770 5771 5772 5773 5774 5775 5776 5776 5776 5775 5775 5774 5774 5774 5773 5772 5771 5769 5768 5768 5767 5766 5765 5763 5762 5761 5760 5758 5757 5756 5754 5753
5743 5744 5745 5745 5747 5748 5750 5752 5756 5758 5759 5760 5762 5763 5764 5765 5766 5766 5767 5767 5767 5766 5766 5766 5765 5765 5764 5763 5762 5761 5760 5759 5757 5756 5755 5754 5753 5752 5750 5749 5748 5747 5745 5744
5736 5737 5738 5739 5741 5742 5744 5746 5748 5750 5751 5753 5754 5755 5756 5756 5757 5758 5758 5757 5757 5757 5757 5757 5757 5757 5755 5754 5753 5752 5751 5750 5748 5747 5746 5744 5743 5742 5741 5740 5738 5737 5736 5734
5730 5731 5732 5734 5735 5736 5738 5739 5741 5743 5744 5745 5746 5747 5748 5748 5749 5749 5749 5749 5748 5749 5749 5749 5748 5747 5746 5745 5744 5743 5742 5740 5738 5737 5736 5735 5734 5732 5731 5730 5729 5728 5726 5725
5724 5726 5727 5727 5729 5730 5731 5733 5734 5736 5737 5738 5739 5740 5740 5740 5741 5741 5741 5741 5740 5740 5740 5740 5739 5738 5737 5736 5735 5734 5733 5732 5730 5728 5727 5726 5724 5723 5721 5720 5719 5718 5717 5715
5718 5719 5720 5721 5723 5724 5725 5727 5728 5728 5730 5730 5731 5732 5732 5732 5733 5733 5732 5732 5732 5731 5731 5730 5729 5729 5728 5727 5726 5725 5724 5723 5721 5719 5718 5716 5715 5713 5711 5710 5709 5708 5707 5706
5713 5714 5715 5716 5718 5719 5720 5721 5721 5722 5723 5723 5724 5724 5724 5725 5725 5724 5724 5724 5724 5723 5722 5721 5721 5720 5719 5718 5717 5716 5714 5713 5711 5710 5708 5707 5705 5704 5702 5700 5699 5698 5697 5695
5709 5710 5710 5712 5713 5714 5715 5715 5715 5716 5716 5716 5717 5717 5717 5717 5717 5717 5716 5716 5716 5715 5714 5713 5712 5711 5710 5709 5707 5706 5705 5703 5702 5700 5698 5697 5695 5694 5692 5691 5689 5688 5686 5685
5704 5705 5706 5707 5708 5709 5710 5710 5710 5710 5710 5710 5710 5710 5710 5710 5710 5710 5709 5709 5708 5707 5706 5705 5704 5702 5701 5699 5698 5696 5695 5693 5691 5690 5688 5687 5685 5684 5682 5681 5679 5677 5676 5674
5699 5700 5702 5703 5704 5704 5705 5705 5705 5705 5704 5704 5703 5703 5703 5702 5702 5702 5702 5701 5700 5699 5698 5696 5695 5694 5692 5690 5689 5687 5685 5684 5682 5680 5679 5677 5676 5674 5673 5671 5670 5668 5666 5664
5694 5696 5697 5698 5699 5699 5699 5699 5699 5699 5698 5698 5697 5697 5696 5696 5695 5694 5694 5693 5692 5691 5689 5688 5686 5685 5683 5681 5680 5678 5676 5675 5673 5671 5669 5668 5667 5665 5663 5662 5660 5658 5656 5654
5691 5691 5693 5693 5694 5694 5694 5694 5693 5693 5693 5692 5691 5691 5690 5689 5688 5687 5686 5685 5684 5683 5681 5679 5678 5676 5674 5673 5671 5669 5668 5666 5664 5662 5661 5659 5658 5656 5654 5653 5651 5649 5646 5644
5688 5688 5688 5689 5689 5689 5689 5689 5689 5688 5688 5687 5686 5685 5684 5683 5682 5681 5679 5678 5676 5675 5673 5672 5670 5669 5667 5665 5663 5661 5659 5657 5656 5654 5652 5651 5649 5647 5645 5643 5641 5639 5637 5635
5684 5684 5684 5684 5684 5684 5684 5684 5683 5683 5682 5681 5681 5680 5678 5677 5676 5674 5673 5671 5670 5668 5666 5665 5663 5661 5659 5657 5656 5653 5651 5650 5648 5646 5644 5642 5640 5639 5637 5635 5633 5630 5628 5626